• In Latvia
  • List of Countries
  • For 7 days
  • Water Temperature
  • Satellite Maps
  • Weather Map
  • Weather Widgets
  • user-avatar
    Login

    Hourly Weather Andora

    Today, 22 August, Tuesday

    Time Temperature Precipitation Wind Pressure Humidity
    00:00 +14°C° 0 mm 1 mps 629 mmHg 65%
    01:00 +14°C° 0 mm 1 mps 628 mmHg 65%
    02:00 +14°C° 0 mm 1 mps 628 mmHg 65%
    03:00 +13°C° 0 mm 1 mps 628 mmHg 64%
    04:00 +14°C° 0 mm 1 mps 628 mmHg 64%
    05:00 +14°C° 0 mm 1 mps 628 mmHg 63%
    06:00 +15°C° 0 mm 1 mps 628 mmHg 61%
    07:00 +19°C° 0 mm 1 mps 630 mmHg 52%
    08:00 +22°C° 0 mm 1 mps 631 mmHg 42%
    09:00 +25°C° 0 mm 2 mps 632 mmHg 33%
    10:00 +26°C° 0 mm 2 mps 632 mmHg 30%
    11:00 +27°C° 0 mm 2 mps 632 mmHg 28%
    12:00 +28°C° 0 mm 2 mps 632 mmHg 28%
    13:00 +28°C° 0 mm 2 mps 632 mmHg 28%
    14:00 +28°C° 0 mm 2 mps 632 mmHg 29%
    15:00 +28°C° 0 mm 2 mps 632 mmHg 29%
    16:00 +26°C° 0.1 mm 2 mps 631 mmHg 37%
    17:00 +24°C° 0.1 mm 1 mps 630 mmHg 45%
    18:00 +22°C° 0.1 mm 1 mps 630 mmHg 53%
    19:00 +20°C° 0 mm 1 mps 629 mmHg 58%
    20:00 +19°C° 0 mm 1 mps 629 mmHg 63%
    21:00 +16°C° 0 mm 1 mps 628 mmHg 67%
    22:00 +15°C° 0 mm 1 mps 628 mmHg 68%
    23:00 +15°C° 0 mm 1 mps 628 mmHg 68%

    Tomorrow, 23 August, Wednesday

    Time Temperature Precipitation Wind Pressure Humidity
    00:00 +15°C° 0 mm 1 mps 628 mmHg 68%
    01:00 +14°C° 0 mm 1 mps 628 mmHg 69%
    02:00 +14°C° 0 mm 1 mps 628 mmHg 70%
    03:00 +14°C° 0 mm 1 mps 628 mmHg 71%
    04:00 +14°C° 0.1 mm 1 mps 628 mmHg 71%
    05:00 +14°C° 0.1 mm 1 mps 628 mmHg 72%
    06:00 +14°C° 0.1 mm 1 mps 628 mmHg 72%
    07:00 +18°C° 0 mm 1 mps 629 mmHg 63%
    08:00 +20°C° 0 mm 1 mps 630 mmHg 55%
    09:00 +21°C° 0 mm 2 mps 631 mmHg 47%
    10:00 +23°C° 0.1 mm 2 mps 632 mmHg 44%
    11:00 +24°C° 0.1 mm 2 mps 632 mmHg 41%
    12:00 +25°C° 0.1 mm 2 mps 632 mmHg 39%
    13:00 +25°C° 0.2 mm 2 mps 632 mmHg 40%
    14:00 +25°C° 0.2 mm 2 mps 631 mmHg 41%
    15:00 +25°C° 0.2 mm 2 mps 631 mmHg 42%
    16:00 +24°C° 0.2 mm 2 mps 630 mmHg 49%
    17:00 +22°C° 0.2 mm 1 mps 630 mmHg 56%
    18:00 +21°C° 0.2 mm 1 mps 629 mmHg 63%
    19:00 +19°C° 0.5 mm 1 mps 629 mmHg 68%
    20:00 +18°C° 0.5 mm 1 mps 629 mmHg 73%
    21:00 +15°C° 0.5 mm 1 mps 629 mmHg 78%
    22:00 +15°C° 0.5 mm 1 mps 629 mmHg 78%
    23:00 +15°C° 0.5 mm 1 mps 628 mmHg 78%

    Day after tomorrow, 24 August, Thursday

    Time Temperature Precipitation Wind Pressure Humidity
    00:00 +15°C° 0.5 mm 1 mps 628 mmHg 77%
    01:00 +14°C° 0.1 mm 1 mps 628 mmHg 78%
    02:00 +14°C° 0.1 mm 1 mps 627 mmHg 78%
    03:00 +13°C° 0.1 mm 1 mps 627 mmHg 79%
    04:00 +14°C° 0 mm 1 mps 627 mmHg 78%
    05:00 +14°C° 0 mm 1 mps 628 mmHg 77%
    06:00 +14°C° 0 mm 1 mps 628 mmHg 76%
    07:00 +16°C° 0 mm 1 mps 629 mmHg 66%
    08:00 +19°C° 0 mm 2 mps 630 mmHg 56%
    09:00 +23°C° 0 mm 2 mps 631 mmHg 45%
    10:00 +24°C° 0 mm 2 mps 631 mmHg 41%
    11:00 +25°C° 0 mm 3 mps 631 mmHg 37%
    12:00 +26°C° 0 mm 3 mps 631 mmHg 34%
    13:00 +26°C° 0 mm 3 mps 631 mmHg 33%
    14:00 +26°C° 0 mm 3 mps 631 mmHg 33%
    15:00 +26°C° 0 mm 4 mps 630 mmHg 33%
    16:00 +25°C° 0 mm 3 mps 630 mmHg 38%
    17:00 +22°C° 0 mm 3 mps 629 mmHg 42%
    18:00 +21°C° 0 mm 2 mps 629 mmHg 47%
    19:00 +19°C° 0 mm 2 mps 628 mmHg 49%
    20:00 +17°C° 0 mm 2 mps 628 mmHg 52%
    21:00 +15°C° 0 mm 2 mps 628 mmHg 54%
    22:00 +15°C° 0 mm 2 mps 627 mmHg 54%
    23:00 +15°C° 0 mm 2 mps 627 mmHg 54%

    25 August, Friday

    Time Temperature Precipitation Wind Pressure Humidity
    00:00 +14°C° 0 mm 1 mps 627 mmHg 54%
    01:00 +14°C° 0 mm 2 mps 627 mmHg 54%
    02:00 +14°C° 0 mm 2 mps 627 mmHg 54%
    03:00 +13°C° 0 mm 2 mps 627 mmHg 54%
    04:00 +13°C° 0 mm 2 mps 627 mmHg 54%
    05:00 +13°C° 0 mm 2 mps 627 mmHg 54%
    06:00 +14°C° 0 mm 2 mps 627 mmHg 54%
    07:00 +16°C° 0.1 mm 2 mps 628 mmHg 48%
    08:00 +19°C° 0.1 mm 2 mps 629 mmHg 42%
    09:00 +22°C° 0.1 mm 3 mps 630 mmHg 36%
    10:00 +24°C° 0 mm 3 mps 630 mmHg 33%
    11:00 +26°C° 0 mm 3 mps 631 mmHg 30%
    12:00 +27°C° 0 mm 4 mps 631 mmHg 27%
    13:00 +27°C° 0 mm 4 mps 631 mmHg 28%
    14:00 +27°C° 0 mm 4 mps 630 mmHg 28%
    15:00 +27°C° 0 mm 4 mps 630 mmHg 29%
    16:00 +25°C° 0 mm 3 mps 629 mmHg 35%
    17:00 +22°C° 0 mm 3 mps 628 mmHg 42%
    18:00 +20°C° 0 mm 2 mps 628 mmHg 48%
    19:00 +19°C° 0.2 mm 2 mps 627 mmHg 52%
    20:00 +17°C° 0.2 mm 2 mps 627 mmHg 57%
    21:00 +15°C° 0.2 mm 2 mps 627 mmHg 61%
    22:00 +15°C° 0.2 mm 2 mps 627 mmHg 59%
    23:00 +15°C° 0.2 mm 2 mps 626 mmHg 57%

    26 August, Saturday

    Time Temperature Precipitation Wind Pressure Humidity
    00:00 +15°C° 0.2 mm 2 mps 626 mmHg 55%
    01:00 +14°C° 0 mm 2 mps 626 mmHg 51%
    02:00 +14°C° 0 mm 2 mps 626 mmHg 47%
    03:00 +14°C° 0 mm 2 mps 625 mmHg 43%
    04:00 +14°C° 0 mm 2 mps 625 mmHg 43%
    05:00 +14°C° 0 mm 2 mps 625 mmHg 43%
    06:00 +14°C° 0 mm 2 mps 626 mmHg 43%
    07:00 +17°C° 0 mm 2 mps 627 mmHg 40%
    08:00 +19°C° 0 mm 2 mps 628 mmHg 36%
    09:00 +22°C° 0 mm 3 mps 629 mmHg 33%
    10:00 +24°C° 0 mm 3 mps 629 mmHg 33%
    11:00 +24°C° 0 mm 3 mps 629 mmHg 32%
    12:00 +25°C° 0 mm 3 mps 629 mmHg 32%
    13:00 +25°C° 0 mm 3 mps 629 mmHg 35%
    14:00 +24°C° 0 mm 3 mps 628 mmHg 38%
    15:00 +22°C° 0 mm 3 mps 628 mmHg 42%
    16:00 +21°C° 0 mm 2 mps 628 mmHg 46%
    17:00 +20°C° 0 mm 2 mps 627 mmHg 51%
    18:00 +20°C° 0 mm 2 mps 627 mmHg 56%
    19:00 +18°C° 0 mm 2 mps 626 mmHg 59%
    20:00 +17°C° 0 mm 2 mps 626 mmHg 63%
    21:00 +15°C° 0 mm 2 mps 626 mmHg 66%
    22:00 +15°C° 0.1 mm 2 mps 626 mmHg 64%
    23:00 +15°C° 0.1 mm 2 mps 626 mmHg 62%

    27 August, Sunday

    Time Temperature Precipitation Wind Pressure Humidity
    00:00 +15°C° 0.1 mm 2 mps 626 mmHg 60%
    01:00 +15°C° 0.3 mm 2 mps 626 mmHg 62%
    02:00 +15°C° 0.3 mm 2 mps 626 mmHg 65%
    03:00 +14°C° 0.3 mm 1 mps 625 mmHg 67%
    04:00 +14°C° 0.1 mm 2 mps 626 mmHg 67%
    05:00 +14°C° 0.1 mm 2 mps 626 mmHg 67%
    06:00 +15°C° 0.1 mm 2 mps 626 mmHg 67%
    07:00 +17°C° 0.1 mm 2 mps 627 mmHg 60%
    08:00 +20°C° 0.1 mm 2 mps 628 mmHg 53%
    09:00 +23°C° 0.1 mm 2 mps 629 mmHg 46%
    10:00 +24°C° 0 mm 3 mps 630 mmHg 43%
    11:00 +25°C° 0 mm 3 mps 630 mmHg 40%
    12:00 +26°C° 0 mm 3 mps 630 mmHg 38%
    13:00 +25°C° 0.5 mm 3 mps 630 mmHg 44%
    14:00 +24°C° 0.5 mm 3 mps 629 mmHg 51%
    15:00 +22°C° 0.5 mm 3 mps 629 mmHg 58%
    16:00 +20°C° 0.8 mm 2 mps 628 mmHg 66%
    17:00 +18°C° 0.8 mm 2 mps 627 mmHg 74%
    18:00 +16°C° 0.8 mm 2 mps 627 mmHg 82%
    19:00 +16°C° 0 mm 2 mps 627 mmHg 81%
    20:00 +16°C° 0 mm 1 mps 627 mmHg 79%
    21:00 +15°C° 0 mm 1 mps 627 mmHg 78%
    22:00 +15°C° 0 mm 1 mps 627 mmHg 75%
    23:00 +15°C° 0 mm 1 mps 627 mmHg 71%
    Show more